CST,Max TemperatureF,Mean TemperatureF,Min TemperatureF,Max Dew PointF,MeanDew PointF,Min DewpointF,Max Humidity, Mean Humidity, Min Humidity, Max Sea Level PressureIn, Mean Sea Level PressureIn, Min Sea Level PressureIn, Max VisibilityMiles, Mean VisibilityMiles, Min VisibilityMiles, Max Wind SpeedMPH, Mean Wind SpeedMPH, Max Gust SpeedMPH,PrecipitationIn, CloudCover, Events, WindDirDegrees
2014-2-1,67,57,46,57,52,38,93,77,61,30.13,30.09,30.07,10,7,0,14,6,17,0.00,6,Fog,99
2014-2-2,66,60,54,64,57,53,100,92,84,30.13,30.06,29.99,10,2,0,13,9,17,T,8,Fog-Rain,117
2014-2-3,67,59,50,65,54,45,100,84,67,30.12,30.05,29.98,10,7,0,17,11,24,0.01,8,Fog-Rain,338
2014-2-4,71,61,50,66,57,45,96,87,77,30.09,30.01,29.93,10,4,0,18,8,24,0.00,8,Fog,114
2014-2-5,69,54,39,67,50,30,93,70,47,30.27,30.07,29.93,10,8,0,23,15,28,0.06,5,Fog-Rain,318
2014-2-6,41,38,34,32,28,25,82,68,54,30.34,30.29,30.23,10,9,5,21,12,27,0.05,4,Rain,3
2014-2-7,60,46,32,40,33,27,85,62,39,30.34,30.27,30.21,10,9,6,14,8,19,0.02,2,Rain,12
2014-2-8,64,54,43,45,43,40,89,71,52,30.25,30.18,30.14,10,10,7,12,5,14,0.19,2,Rain,14
2014-2-9,68,55,42,50,45,39,92,67,42,30.21,30.14,30.09,10,9,5,14,5,19,T,0,,266
2014-2-10,70,59,48,57,53,46,93,77,61,30.14,30.09,30.04,10,7,0,16,6,27,T,4,Fog-Rain,232
2014-2-11,55,52,49,52,48,46,96,90,83,30.12,30.06,29.97,10,6,0,14,9,19,0.41,8,Fog-Rain,23
2014-2-12,50,46,42,47,44,37,93,88,82,30.03,29.88,29.77,10,5,1,24,10,35,1.51,8,Rain-Thunderstorm,16
2014-2-13,58,48,38,40,35,31,83,60,36,30.03,29.96,29.87,10,10,6,25,10,32,T,4,Rain,315
2014-2-14,63,52,40,52,43,35,89,66,43,30.04,29.96,29.86,10,9,5,32,11,42,T,2,Rain,250
2014-2-15,62,53,44,43,35,24,83,53,23,30.18,30.10,29.92,10,10,10,22,8,26,0.00,0,,342
2014-2-16,67,54,41,51,42,32,89,59,29,30.22,30.17,30.14,10,10,5,13,5,14,0.00,0,,240
2014-2-17,72,61,49,61,56,48,93,80,66,30.20,30.16,30.13,10,9,2,17,6,22,0.00,4,,177
2014-2-18,76,69,61,63,61,57,93,77,60,30.21,30.15,30.11,10,9,4,16,8,20,0.00,5,,204
2014-2-19,72,68,63,64,63,62,100,87,73,30.14,30.08,30.04,10,7,0,14,8,19,0.00,8,Fog,172
2014-2-20,72,69,65,66,65,64,100,90,79,30.06,30.01,29.93,10,4,0,21,13,26,0.00,8,Fog,161
2014-2-21,69,60,51,67,47,26,93,58,22,30.10,30.00,29.86,10,7,0,35,13,44,2.19,4,Fog-Rain-Thunderstorm,337
2014-2-22,70,59,47,46,33,25,77,49,21,30.17,30.10,30.04,10,10,10,12,5,18,0.00,0,,62
2014-2-23,66,61,56,63,58,48,93,80,67,30.07,30.01,29.94,10,5,0,18,4,24,2.22,8,Fog-Rain-Thunderstorm,102
2014-2-24,76,68,59,61,58,50,97,69,41,30.13,30.06,30.00,10,6,0,14,6,18,T,4,Fog,353
2014-2-25,77,66,54,59,54,49,93,70,46,30.09,30.02,29.92,10,9,5,13,4,16,T,2,Rain,204
2014-2-26,65,53,41,62,49,29,93,75,57,30.02,29.91,29.84,10,7,1,22,12,29,1.22,7,Rain,333
2014-2-27,57,46,35,28,20,14,65,43,20,30.09,30.04,29.99,10,10,10,18,9,26,0.00,0,,348
2014-2-28,59,46,32,44,31,19,75,50,24,30.15,30.10,30.03,10,10,10,13,6,17,0.00,0,,104